TOM3LG EGKK-LSGG

Flight info

Callsign TOM3LG
Flight time N/A
Altitude 23000
Route SFD Y47 BENBO L612 HAWKE/N0427F310 UL612 VEULE DCT PEKIM DCT PILUL DCT PIMUP/N0396F270 DCT PIXIS DCT PIBAT DCT LUSAR
Aircraft B738/M-SDE2E3FGHIRWXY/LB1

Departure

Time 2026-05-05 17:20
Airport London Gatwick Airport (EGKK)

Arrival

Time N/A
Airport Geneva International Airport (LSGG)
Time Latitude Longitude Altitude Speed Heading
2026-05-05 16:44 51.15367 -0.17586 214 ft 0 kts 347°
2026-05-05 17:04 51.15366 -0.17586 205 ft 1 kts 347°
2026-05-05 17:04 51.15363 -0.17587 205 ft 3 kts 339°
2026-05-05 17:05 51.15344 -0.17580 206 ft 3 kts 349°
2026-05-05 17:05 51.15324 -0.17573 205 ft 3 kts 347°
2026-05-05 17:05 51.15305 -0.17565 214 ft 2 kts 334°
2026-05-05 17:05 51.15291 -0.17550 213 ft 2 kts 291°
2026-05-05 17:06 51.15289 -0.17535 214 ft 1 kts 257°
2026-05-05 17:06 51.15292 -0.17509 211 ft 2 kts 257°
2026-05-05 17:06 51.15294 -0.17499 209 ft 0 kts 257°
2026-05-05 17:09 51.15294 -0.17500 204 ft 0 kts 257°
2026-05-05 17:09 51.15291 -0.17517 204 ft 4 kts 257°
2026-05-05 17:10 51.15284 -0.17583 209 ft 9 kts 259°
2026-05-05 17:10 51.15268 -0.17701 209 ft 13 kts 257°
2026-05-05 17:10 51.15244 -0.17867 214 ft 18 kts 257°
2026-05-05 17:10 51.15215 -0.18082 209 ft 21 kts 257°
2026-05-05 17:11 51.15185 -0.18305 215 ft 20 kts 259°
2026-05-05 17:11 51.15158 -0.18522 213 ft 20 kts 258°
2026-05-05 17:11 51.15130 -0.18731 204 ft 19 kts 257°
2026-05-05 17:11 51.15102 -0.18934 209 ft 18 kts 258°
2026-05-05 17:12 51.15076 -0.19130 204 ft 18 kts 258°
2026-05-05 17:12 51.15051 -0.19319 210 ft 17 kts 258°
2026-05-05 17:12 51.15023 -0.19513 208 ft 18 kts 257°
2026-05-05 17:12 51.14996 -0.19704 210 ft 19 kts 257°
2026-05-05 17:13 51.14966 -0.19929 207 ft 22 kts 258°
2026-05-05 17:13 51.14931 -0.20184 205 ft 25 kts 258°
2026-05-05 17:13 51.14893 -0.20460 205 ft 23 kts 257°
2026-05-05 17:13 51.14865 -0.20609 209 ft 12 kts 232°
2026-05-05 17:14 51.14796 -0.20676 206 ft 12 kts 213°
2026-05-05 17:14 51.14754 -0.20776 209 ft 11 kts 253°
2026-05-05 17:14 51.14735 -0.20896 204 ft 11 kts 256°
2026-05-05 17:14 51.14719 -0.21021 201 ft 13 kts 259°
2026-05-05 17:15 51.14697 -0.21177 205 ft 15 kts 258°
2026-05-05 17:15 51.14665 -0.21327 208 ft 12 kts 213°
2026-05-05 17:15 51.14624 -0.21328 200 ft 0 kts 166°
2026-05-05 17:17 51.14622 -0.21327 200 ft 2 kts 166°
2026-05-05 17:17 51.14581 -0.21309 207 ft 10 kts 159°
2026-05-05 17:17 51.14526 -0.21229 206 ft 12 kts 120°
2026-05-05 17:18 51.14520 -0.21126 207 ft 1 kts 78°
2026-05-05 17:19 51.14557 -0.20855 210 ft 66 kts 78°
2026-05-05 17:19 51.14722 -0.19677 209 ft 147 kts 77°
2026-05-05 17:20 51.14978 -0.17927 753 ft 178 kts 77°
2026-05-05 17:20 51.15263 -0.15903 1570 ft 197 kts 76°
2026-05-05 17:20 51.15570 -0.13708 2355 ft 208 kts 76°
2026-05-05 17:20 51.15864 -0.11404 2890 ft 218 kts 77°
2026-05-05 17:21 51.16053 -0.08973 3521 ft 226 kts 94°
2026-05-05 17:21 51.15456 -0.06634 4159 ft 236 kts 127°
2026-05-05 17:21 51.14079 -0.05108 4681 ft 250 kts 158°
2026-05-05 17:22 51.10635 -0.03826 5954 ft 261 kts 168°
2026-05-05 17:22 51.08783 -0.03252 6353 ft 279 kts 166°
2026-05-05 17:22 51.06891 -0.02398 7098 ft 285 kts 162°
2026-05-05 17:22 51.04992 -0.01469 8089 ft 285 kts 162°
2026-05-05 17:23 51.03085 -0.00541 8862 ft 294 kts 162°
2026-05-05 17:23 51.01114 0.00411 9778 ft 296 kts 163°